McGuire AFB, NJ

1:50 AM EST on November 21, 2019 (GMT -0500)
McGuire Air Force Base

Weather History for KWRI - October, 2019

Change the Weather History Date:

Monday, October 21, 2019

  Actual Average Record
Temperature  
Mean Temperature 58 °F -  
Max Temperature 69 °F 62 °F 82 °F (2001)
Min Temperature 48 °F 42 °F 34 °F (2008)
Degree Days  
Heating Degree Days 6    
Growing Degree Days 8 (Base 50)    
Moisture  
Dew Point 50 °F    
Average Humidity 82    
Maximum Humidity 100    
Minimum Humidity 47    
Precipitation  
Precipitation 0.00 in - - ()
Sea Level Pressure  
Sea Level Pressure 30.03 in    
Wind  
Wind Speed 10 mph (NNE)    
Max Wind Speed 14 mph    
Max Gust Speed -    
Visibility 10 miles    
Events Rain    
Averages and records for this station are not official NWS values.
T = Trace of Precipitation, MM = Missing Value Source: NWS Daily Summary

Daily Weather History Graph

Daily Weather History Graph

Search for Another Location

Airport or City:

Astronomy

Oct. 21, 2019 Rise Set
Actual Time 7:14 AM EDT 6:10 PM EDT
Civil Twilight 6:47 AM EDT 6:37 PM EDT
Nautical Twilight 6:15 AM EDT 7:09 PM EDT
Astronomical Twilight 5:44 AM EDT 7:40 PM EDT
Moon No Moon Rise 2:31 PM EDT
Length of Visible Light 11h 50m
Length of Day
10h 55m
Waning Gibbous, 48% of the Moon is Illuminated
Oct 21
Waning Gibbous
Oct 27
New
Nov 4
First Quarter
Nov 12
Full
Nov 19
Last Quarter

Hourly Weather History & Observations

Time (EDT) Temp. Dew Point Humidity Pressure Visibility Wind Dir Wind Speed Gust Speed Precip Events Conditions
12:46 AM 51.8 °F 51.8 °F 100% 29.93 in 10.0 mi NNE 13.8 mph - N/A Rain Light Rain
12:56 AM 52.5 °F 52.5 °F 100% 29.93 in 10.0 mi NNE 12.7 mph - - Rain Light Rain
1:04 AM 53.6 °F 53.6 °F 100% 29.93 in 10.0 mi NNE 11.5 mph - N/A   Overcast
1:56 AM 53.2 °F 53.2 °F 100% 29.93 in 10.0 mi North 10.4 mph - 0.00 in   Overcast
2:41 AM 53.6 °F 53.6 °F 100% 29.95 in 10.0 mi North 12.7 mph - N/A   Overcast
2:56 AM 52.9 °F 52.5 °F 99% 29.95 in 10.0 mi North 12.7 mph - N/A   Overcast
3:26 AM 51.8 °F 51.8 °F 100% 29.96 in 10.0 mi North 11.5 mph - N/A   Overcast
3:56 AM 52.5 °F 51.1 °F 95% 29.95 in 10.0 mi North 11.5 mph - N/A   Overcast
4:36 AM 51.8 °F 50.0 °F 94% 29.97 in 10.0 mi North 9.2 mph - N/A   Overcast
4:51 AM 51.8 °F 50.0 °F 94% 29.97 in 10.0 mi North 10.4 mph - N/A   Overcast
4:56 AM 52.3 °F 50.0 °F 92% 29.97 in 10.0 mi North 9.2 mph - N/A   Overcast
5:56 AM 51.4 °F 49.8 °F 94% 30.00 in 10.0 mi North 9.2 mph - N/A   Overcast
6:01 AM 51.8 °F 50.0 °F 94% 30.00 in 10.0 mi North 9.2 mph - N/A   Overcast
6:11 AM 50.0 °F 48.2 °F 94% 30.00 in 10.0 mi NNW 10.4 mph - N/A   Mostly Cloudy
7:23 AM 48.2 °F 46.8 °F 95% 30.03 in 10.0 mi NNW 9.2 mph - N/A   Clear
7:56 AM 50.0 °F 46.6 °F 88% 30.03 in 10.0 mi North 11.5 mph - N/A   Clear
8:56 AM 54.0 °F 47.3 °F 78% 30.04 in 10.0 mi North 9.2 mph - N/A   Clear
9:56 AM 58.1 °F 48.0 °F 69% 30.05 in 10.0 mi North 12.7 mph - N/A   Clear
10:56 AM 61.9 °F 48.7 °F 62% 30.06 in 10.0 mi NNE 9.2 mph - N/A   Clear
11:56 AM 64.6 °F 49.5 °F 58% 30.06 in 10.0 mi NNE 11.5 mph - N/A   Clear
12:56 PM 67.5 °F 48.7 °F 51% 30.07 in 10.0 mi NNE 8.1 mph - N/A   Clear
1:56 PM 68.2 °F 47.7 °F 48% 30.04 in 10.0 mi NE 8.1 mph - N/A   Clear
2:56 PM 69.6 °F 48.6 °F 47% 30.04 in 10.0 mi NE 10.4 mph - N/A   Clear
3:56 PM 68.4 °F 49.5 °F 51% 30.05 in 10.0 mi East 4.6 mph - N/A   Clear
4:56 PM 65.5 °F 51.3 °F 60% 30.07 in 10.0 mi ESE 9.2 mph - N/A   Scattered Clouds
5:56 PM 62.1 °F 50.9 °F 67% 30.08 in 10.0 mi East 5.8 mph - N/A   Mostly Cloudy
6:06 PM 60.8 °F 51.8 °F 72% 30.08 in 10.0 mi ESE 5.8 mph - N/A   Overcast
6:56 PM 59.5 °F 51.6 °F 75% 30.07 in 10.0 mi ESE 5.8 mph - N/A   Overcast
7:56 PM 59.4 °F 51.1 °F 74% 30.10 in 10.0 mi ESE 3.5 mph - N/A   Overcast
8:56 PM 59.0 °F 51.4 °F 76% 30.12 in 10.0 mi East 3.5 mph - N/A   Overcast
9:31 PM 57.2 °F 51.8 °F 82% 30.11 in 10.0 mi Calm Calm - N/A   Scattered Clouds
9:56 PM 58.1 °F 51.6 °F 79% 30.11 in 10.0 mi Calm Calm - N/A   Partly Cloudy
10:56 PM 53.6 °F 51.3 °F 92% 30.11 in 10.0 mi Calm Calm - N/A   Partly Cloudy
11:56 PM 51.8 °F 51.4 °F 99% 30.11 in 10.0 mi Calm Calm - N/A   Clear